QPF
0.03 0.03 0.02 0.02 0.02 0.03 0.06 0.07 0.06 0.05 0.05 0.04 0.04 0.04 0.04 0.09 0.13 0.10 0.08 0.07 0.05 0.04 0.04 0.04 0.03 0.02 0.02 0.02 0.02 0.03 0.04 0.04 0.05 0.06 0.07 0.07 0.07 0.07
0.01 0.02 0.03 0.02 0.01 0.02 0.05 0.07 0.06 0.05 0.05 0.02 0.02 0.03 0.04 0.08 0.14 0.13 0.09 0.06 0.04 0.04 0.04 0.04 0.03 0.02 0.02 0.02 0.01 0.01 0.02 0.03 0.04 0.04 0.04 0.05 0.06 0.06
0.01 0.02 0.02 0.02 0.02 0.02 0.04 0.04 0.04 0.05 0.05 0.04 0.03 0.02 0.04 0.04 0.05 0.05 0.04 0.04 0.04 0.05 0.05 0.04 0.03 0.02 0.02 0.01 0.01 0.02 0.02 0.02 0.02 0.03 0.03 0.04 0.04 0.04
0.01 0.01 0.01 0.02 0.03 0.03 0.03 0.02 0.03 0.03 0.04 0.03 0.03 0.03 0.04 0.04 0.03 0.04 0.04 0.04 0.03 0.03 0.03 0.03 0.03 0.03 0.02 0.01 0.01 0.02 0.02 0.02 0.01 0.02 0.02 0.03 0.03 0.03
0.01 0.01 0.01 0.02 0.02 0.02 0.01 0.02 0.02 0.02 0.02 0.02 0.02 0.03 0.05 0.06 0.05 0.05 0.05 0.04 0.03 0.02 0.01 0.01 0.02 0.02 0.02 0.01 0.02 0.02 0.02 0.02 0.02 0.01 0.02 0.03 0.03 0.03
0.01 0.01 0.02 0.02 0.01 0.01 0.01 0.01 0.02 0.02 0.02 0.02 0.01 0.01 0.03 0.06 0.06 0.06 0.07 0.05 0.03 0.03 0.02 0.02 0.02 0.02 0.02 0.02 0.02 0.02 0.03 0.03 0.02 0.02 0.02 0.02 0.02 0.02
0.01 0.01 0.01 0.01 0.01 0.01 0.01 0.01 0.01 0.01 0.02 0.01 0.01 0.01 0.02 0.04 0.04 0.05 0.07 0.06 0.07 0.05 0.04 0.03 0.03 0.02 0.02 0.02 0.02 0.02 0.03 0.03 0.03 0.02 0.02 0.02 0.02 0.02
0.01 0.01 0.01 0.02 0.01 0.01 0.01 0.01 0.01 0.01 0.01 0.01 0.01 0.01 0.01 0.01 0.03 0.04 0.05 0.07 0.07 0.05 0.05 0.04 0.04 0.03 0.02 0.02 0.02 0.03 0.03 0.03 0.03 0.02 0.02 0.02 0.02 0.02
0.01 0.01 0.01 0.01 0.01 0.01 0.01 0.01 0.01 0.00 0.00 0.01 0.01 0.01 0.01 0.01 0.02 0.02 0.03 0.04 0.05 0.04 0.04 0.03 0.02 0.02 0.02 0.03 0.03 0.03 0.03 0.03 0.03 0.02 0.02 0.02 0.02 0.02
0.03 0.03 0.02 0.01 0.01 0.01 0.00 0.00 0.00 0.00 0.01 0.01 0.01 0.01 0.01 0.01 0.02 0.02 0.02 0.03 0.05 0.05 0.04 0.04 0.02 0.01 0.01 0.02 0.03 0.03 0.03 0.03 0.03 0.03 0.03 0.03 0.03 0.03
0.03 0.02 0.02 0.01 0.01 0.01 0.01 0.00 0.00 0.00 0.01 0.01 0.01 0.01 0.01 0.01 0.02 0.02 0.03 0.03 0.03 0.03 0.03 0.04 0.03 0.02 0.02 0.02 0.02 0.03 0.04 0.04 0.04 0.04 0.04 0.03 0.04 0.04
0.03 0.02 0.02 0.01 0.01 0.01 0.01 0.01 0.01 0.01 0.01 0.01 0.01 0.01 0.01 0.01 0.01 0.02 0.03 0.04 0.03 0.02 0.02 0.03 0.05 0.05 0.04 0.02 0.02 0.02 0.03 0.04 0.05 0.05 0.04 0.05 0.05 0.04
0.03 0.02 0.01 0.02 0.02 0.02 0.02 0.02 0.02 0.02 0.02 0.02 0.02 0.02 0.02 0.02 0.01 0.01 0.02 0.04 0.04 0.02 0.03 0.05 0.04 0.06 0.06 0.05 0.03 0.04 0.04 0.05 0.06 0.05 0.05 0.04 0.04 0.03
0.02 0.02 0.02 0.02 0.01 0.02 0.04 0.05 0.05 0.05 0.04 0.03 0.02 0.02 0.02 0.02 0.01 0.01 0.02 0.04 0.05 0.04 0.05 0.06 0.06 0.06 0.07 0.07 0.05 0.05 0.06 0.07 0.07 0.06 0.07 0.06 0.05 0.04
0.03 0.03 0.03 0.02 0.02 0.02 0.03 0.03 0.03 0.03 0.04 0.05 0.04 0.02 0.02 0.02 0.02 0.02 0.02 0.03 0.04 0.04 0.04 0.05 0.07 0.08 0.08 0.07 0.08 0.07 0.07 0.07 0.07 0.07 0.08 0.08 0.06 0.04
0.04 0.05 0.05 0.03 0.03 0.02 0.03 0.02 0.02 0.02 0.02 0.02 0.02 0.02 0.03 0.03 0.03 0.03 0.03 0.04 0.04 0.04 0.05 0.05 0.07 0.09 0.08 0.07 0.08 0.08 0.08 0.08 0.09 0.10 0.11 0.11 0.09 0.06
0.06 0.06 0.06 0.04 0.03 0.02 0.02 0.02 0.03 0.03 0.03 0.02 0.03 0.03 0.03 0.03 0.03 0.04 0.04 0.06 0.06 0.05 0.05 0.06 0.07 0.08 0.08 0.07 0.07 0.07 0.07 0.08 0.09 0.10 0.10 0.09 0.08 0.06
0.11 0.09 0.08 0.06 0.03 0.03 0.03 0.02 0.02 0.02 0.03 0.04 0.04 0.04 0.03 0.03 0.03 0.04 0.06 0.07 0.06 0.07 0.07 0.08 0.10 0.10 0.11 0.10 0.08 0.07 0.07 0.06 0.08 0.09 0.09 0.07 0.05 0.04
0.13 0.11 0.10 0.07 0.02 0.02 0.03 0.03 0.03 0.03 0.04 0.05 0.05 0.05 0.05 0.05 0.06 0.05 0.06 0.07 0.07 0.07 0.08 0.09 0.10 0.12 0.14 0.14 0.13 0.11 0.09 0.07 0.07 0.07 0.07 0.05 0.04 0.04
0.04 0.03 0.03 0.03 0.02 0.02 0.02 0.03 0.04 0.04 0.05 0.06 0.07 0.08 0.09 0.09 0.07 0.06 0.06 0.07 0.08 0.08 0.09 0.10 0.10 0.12 0.13 0.12 0.12 0.11 0.10 0.08 0.07 0.08 0.06 0.04 0.04 0.04
0.02 0.02 0.02 0.03 0.03 0.03 0.03 0.03 0.03 0.03 0.04 0.06 0.06 0.07 0.06 0.07 0.08 0.09 0.10 0.12 0.12 0.12 0.12 0.10 0.11 0.13 0.14 0.14 0.11 0.08 0.08 0.09 0.09 0.09 0.07 0.05 0.04 0.04
0.03 0.03 0.04 0.03 0.03 0.03 0.04 0.04 0.05 0.04 0.04 0.06 0.06 0.07 0.08 0.09 0.08 0.09 0.11 0.13 0.14 0.13 0.13 0.14 0.15 0.15 0.14 0.14 0.11 0.09 0.10 0.11 0.11 0.12 0.10 0.09 0.08 0.07
0.02 0.03 0.03 0.03 0.03 0.04 0.05 0.06 0.06 0.07 0.07 0.08 0.08 0.08 0.08 0.09 0.11 0.13 0.14 0.15 0.16 0.16 0.16 0.15 0.15 0.14 0.13 0.11 0.10 0.10 0.12 0.14 0.14 0.12 0.10 0.07 0.05 0.04
MSLP
1016.88 1017.10 1017.35 1017.59 1017.76 1017.84 1017.78 1017.58 1017.25 1016.80 1016.27 1015.70 1015.13 1014.59 1014.10 1013.70 1013.37 1013.14 1013.00 1012.95 1012.97 1013.06 1013.20 1013.36 1013.52 1013.67 1013.77 1013.83 1013.84 1013.81 1013.76 1013.71 1013.68 1013.67 1013.69 1013.75 1013.81 1013.87
1016.27 1016.43 1016.61 1016.81 1016.97 1017.07 1017.07 1016.96 1016.73 1016.39 1015.97 1015.49 1014.97 1014.46 1013.97 1013.52 1013.13 1012.83 1012.60 1012.47 1012.43 1012.46 1012.56 1012.69 1012.84 1012.99 1013.11 1013.19 1013.22 1013.23 1013.21 1013.19 1013.18 1013.19 1013.23 1013.30 1013.37 1013.42
1015.75 1015.82 1015.92 1016.05 1016.17 1016.27 1016.30 1016.26 1016.13 1015.90 1015.59 1015.21 1014.77 1014.29 1013.81 1013.34 1012.91 1012.53 1012.23 1012.02 1011.90 1011.86 1011.90 1011.99 1012.11 1012.24 1012.35 1012.44 1012.49 1012.51 1012.51 1012.52 1012.53 1012.57 1012.63 1012.71 1012.78 1012.84
1015.31 1015.29 1015.30 1015.35 1015.41 1015.48 1015.53 1015.53 1015.47 1015.34 1015.13 1014.85 1014.49 1014.07 1013.61 1013.13 1012.67 1012.25 1011.88 1011.59 1011.39 1011.28 1011.25 1011.28 1011.35 1011.43 1011.51 1011.58 1011.62 1011.64 1011.65 1011.67 1011.71 1011.77 1011.85 1011.95 1012.04 1012.11
1014.92 1014.82 1014.74 1014.70 1014.70 1014.72 1014.76 1014.78 1014.77 1014.71 1014.59 1014.38 1014.09 1013.73 1013.31 1012.85 1012.39 1011.93 1011.52 1011.18 1010.91 1010.73 1010.62 1010.58 1010.57 1010.59 1010.61 1010.63 1010.63 1010.63 1010.64 1010.66 1010.71 1010.79 1010.90 1011.02 1011.14 1011.24
1014.52 1014.35 1014.20 1014.08 1014.01 1013.98 1013.99 1014.02 1014.03 1014.01 1013.94 1013.80 1013.58 1013.28 1012.91 1012.48 1012.03 1011.58 1011.15 1010.78 1010.46 1010.22 1010.04 1009.91 1009.81 1009.74 1009.68 1009.62 1009.56 1009.52 1009.50 1009.52 1009.58 1009.69 1009.83 1009.99 1010.15 1010.29
1014.06 1013.85 1013.64 1013.46 1013.33 1013.26 1013.24 1013.24 1013.26 1013.26 1013.22 1013.12 1012.96 1012.71 1012.39 1012.01 1011.60 1011.17 1010.76 1010.37 1010.03 1009.74 1009.49 1009.27 1009.08 1008.91 1008.74 1008.59 1008.46 1008.36 1008.31 1008.31 1008.38 1008.51 1008.69 1008.90 1009.12 1009.32
1013.51 1013.28 1013.04 1012.83 1012.67 1012.56 1012.50 1012.48 1012.48 1012.48 1012.45 1012.38 1012.25 1012.05 1011.78 1011.46 1011.10 1010.71 1010.33 1009.95 1009.60 1009.27 1008.96 1008.66 1008.38 1008.10 1007.84 1007.59 1007.37 1007.21 1007.12 1007.11 1007.18 1007.34 1007.56 1007.83 1008.11 1008.37
1012.88 1012.66 1012.43 1012.22 1012.04 1011.91 1011.82 1011.78 1011.75 1011.73 1011.69 1011.62 1011.50 1011.33 1011.11 1010.84 1010.53 1010.19 1009.84 1009.49 1009.13 1008.78 1008.42 1008.06 1007.69 1007.32 1006.96 1006.62 1006.33 1006.11 1005.98 1005.96 1006.04 1006.23 1006.49 1006.82 1007.16 1007.48
1012.25 1012.06 1011.86 1011.66 1011.49 1011.36 1011.25 1011.17 1011.11 1011.06 1010.99 1010.90 1010.78 1010.62 1010.41 1010.17 1009.90 1009.61 1009.29 1008.95 1008.60 1008.23 1007.84 1007.42 1006.99 1006.55 1006.11 1005.71 1005.36 1005.10 1004.94 1004.91 1005.00 1005.21 1005.51 1005.87 1006.26 1006.64
1011.69 1011.55 1011.39 1011.24 1011.09 1010.95 1010.83 1010.72 1010.61 1010.51 1010.40 1010.27 1010.11 1009.93 1009.73 1009.49 1009.24 1008.95 1008.65 1008.32 1007.97 1007.58 1007.17 1006.72 1006.25 1005.77 1005.29 1004.85 1004.48 1004.19 1004.02 1003.97 1004.07 1004.28 1004.60 1004.98 1005.40 1005.80
1011.27 1011.19 1011.09 1010.97 1010.85 1010.71 1010.57 1010.42 1010.26 1010.09 1009.92 1009.73 1009.52 1009.30 1009.06 1008.80 1008.53 1008.24 1007.93 1007.59 1007.23 1006.84 1006.41 1005.96 1005.47 1004.98 1004.50 1004.05 1003.67 1003.38 1003.21 1003.16 1003.24 1003.44 1003.74 1004.11 1004.52 1004.92
1011.03 1011.01 1010.96 1010.88 1010.77 1010.62 1010.45 1010.25 1010.02 1009.78 1009.53 1009.26 1008.98 1008.70 1008.40 1008.10 1007.79 1007.47 1007.13 1006.78 1006.40 1006.01 1005.58 1005.13 1004.67 1004.21 1003.75 1003.33 1002.97 1002.70 1002.52 1002.45 1002.50 1002.65 1002.90 1003.22 1003.58 1003.95
1010.95 1010.98 1010.97 1010.91 1010.79 1010.62 1010.40 1010.14 1009.84 1009.52 1009.19 1008.84 1008.49 1008.13 1007.77 1007.41 1007.04 1006.67 1006.30 1005.92 1005.53 1005.13 1004.72 1004.31 1003.89 1003.48 1003.08 1002.71 1002.39 1002.14 1001.95 1001.86 1001.85 1001.93 1002.09 1002.31 1002.58 1002.87
1010.97 1011.03 1011.03 1010.97 1010.83 1010.61 1010.34 1010.01 1009.64 1009.25 1008.83 1008.42 1007.99 1007.57 1007.15 1006.73 1006.32 1005.90 1005.49 1005.09 1004.69 1004.29 1003.92 1003.55 1003.19 1002.85 1002.53 1002.23 1001.96 1001.72 1001.53 1001.38 1001.29 1001.26 1001.29 1001.37 1001.51 1001.70
1010.97 1011.05 1011.05 1010.96 1010.78 1010.51 1010.17 1009.78 1009.35 1008.90 1008.43 1007.97 1007.50 1007.04 1006.58 1006.12 1005.67 1005.22 1004.78 1004.36 1003.95 1003.58 1003.23 1002.92 1002.63 1002.37 1002.13 1001.90 1001.68 1001.46 1001.25 1001.04 1000.85 1000.68 1000.55 1000.47 1000.45 1000.49
1010.87 1010.94 1010.92 1010.79 1010.56 1010.23 1009.84 1009.40 1008.93 1008.45 1007.97 1007.49 1007.02 1006.55 1006.09 1005.62 1005.15 1004.69 1004.24 1003.81 1003.41 1003.06 1002.75 1002.49 1002.28 1002.09 1001.92 1001.76 1001.57 1001.36 1001.11 1000.83 1000.53 1000.21 999.91 999.65 999.46 999.36
1010.58 1010.63 1010.57 1010.39 1010.12 1009.75 1009.32 1008.86 1008.38 1007.91 1007.45 1007.01 1006.58 1006.15 1005.72 1005.28 1004.83 1004.37 1003.93 1003.50 1003.11 1002.78 1002.50 1002.29 1002.13 1002.00 1001.89 1001.77 1001.61 1001.40 1001.12 1000.76 1000.35 999.90 999.44 999.02 998.67 998.43
1010.07 1010.09 1010.00 1009.78 1009.47 1009.08 1008.65 1008.20 1007.76 1007.34 1006.95 1006.58 1006.23 1005.87 1005.50 1005.12 1004.70 1004.27 1003.84 1003.42 1003.05 1002.72 1002.46 1002.27 1002.15 1002.06 1001.99 1001.90 1001.76 1001.54 1001.22 1000.81 1000.31 999.76 999.17 998.62 998.15 997.80
1009.37 1009.36 1009.23 1008.99 1008.67 1008.29 1007.89 1007.49 1007.12 1006.79 1006.50 1006.24 1005.99 1005.73 1005.45 1005.13 1004.77 1004.37 1003.96 1003.54 1003.16 1002.83 1002.57 1002.39 1002.27 1002.20 1002.14 1002.07 1001.94 1001.72 1001.39 1000.94 1000.40 999.78 999.13 998.51 997.96 997.55
1008.52 1008.48 1008.33 1008.09 1007.79 1007.45 1007.11 1006.80 1006.54 1006.32 1006.15 1006.02 1005.88 1005.73 1005.53 1005.28 1004.97 1004.60 1004.19 1003.77 1003.37 1003.02 1002.74 1002.54 1002.41 1002.33 1002.27 1002.20 1002.08 1001.87 1001.55 1001.11 1000.57 999.95 999.29 998.66 998.10 997.68
1007.57 1007.51 1007.37 1007.15 1006.89 1006.63 1006.38 1006.18 1006.04 1005.95 1005.91 1005.90 1005.87 1005.81 1005.69 1005.49 1005.21 1004.85 1004.44 1004.00 1003.57 1003.18 1002.87 1002.63 1002.47 1002.37 1002.30 1002.24 1002.13 1001.94 1001.66 1001.26 1000.77 1000.21 999.61 999.03 998.52 998.13
1006.59 1006.52 1006.40 1006.23 1006.05 1005.88 1005.74 1005.66 1005.64 1005.68 1005.76 1005.85 1005.91 1005.92 1005.85 1005.68 1005.40 1005.04 1004.60 1004.13 1003.66 1003.23 1002.87 1002.59 1002.39 1002.27 1002.19 1002.13 1002.04 1001.90 1001.67 1001.35 1000.95 1000.49 999.99 999.51 999.09 998.79
Thickness
5751 5749 5746 5744 5742 5740 5737 5733 5725 5718 5720 5725 5727 5731 5730 5728 5727 5726 5725 5724 5723 5722 5721 5720 5719 5718 5717 5717 5716 5715 5714 5713 5712 5711 5710 5709 5708 5707
5748 5746 5743 5742 5740 5738 5736 5733 5729 5723 5719 5724 5725 5727 5726 5725 5724 5723 5722 5721 5720 5720 5718 5717 5716 5715 5714 5713 5712 5711 5711 5710 5709 5708 5706 5705 5704 5703
5745 5743 5741 5739 5737 5735 5734 5731 5728 5725 5719 5721 5723 5724 5722 5720 5720 5720 5719 5717 5717 5716 5715 5714 5713 5712 5711 5710 5708 5707 5706 5705 5704 5704 5702 5701 5700 5699
5741 5740 5738 5737 5733 5731 5730 5727 5725 5724 5719 5716 5718 5718 5717 5717 5716 5715 5715 5715 5714 5713 5712 5711 5710 5708 5707 5706 5705 5703 5702 5701 5700 5699 5698 5697 5696 5695
5740 5737 5735 5733 5730 5728 5726 5724 5722 5721 5718 5714 5713 5713 5712 5712 5710 5710 5711 5710 5710 5710 5709 5708 5706 5705 5704 5702 5701 5699 5698 5697 5696 5695 5693 5692 5692 5691
5737 5735 5733 5730 5728 5725 5723 5720 5718 5715 5713 5710 5708 5707 5706 5707 5705 5703 5702 5703 5704 5706 5705 5704 5702 5701 5700 5699 5697 5696 5694 5693 5692 5691 5690 5689 5688 5686
5733 5732 5730 5729 5727 5724 5721 5717 5714 5710 5707 5704 5702 5700 5700 5699 5698 5698 5696 5696 5697 5699 5698 5698 5697 5696 5695 5694 5693 5692 5691 5689 5688 5687 5685 5684 5683 5681
5727 5726 5726 5724 5723 5721 5719 5716 5713 5708 5703 5700 5698 5695 5695 5695 5695 5693 5690 5688 5688 5693 5691 5691 5691 5690 5691 5691 5690 5689 5687 5686 5684 5683 5681 5680 5678 5677
5723 5721 5721 5720 5717 5715 5713 5711 5709 5707 5704 5700 5695 5694 5693 5692 5690 5688 5686 5684 5684 5687 5685 5684 5685 5684 5686 5686 5686 5685 5683 5682 5680 5678 5677 5675 5674 5672
5719 5717 5715 5713 5712 5709 5706 5704 5703 5702 5700 5697 5695 5693 5692 5690 5688 5686 5683 5681 5681 5682 5681 5677 5679 5679 5682 5681 5681 5680 5678 5677 5675 5674 5672 5671 5669 5667
5713 5713 5711 5708 5708 5705 5701 5698 5696 5696 5696 5694 5692 5690 5688 5686 5684 5680 5677 5674 5672 5674 5675 5672 5672 5672 5673 5674 5675 5675 5673 5672 5671 5669 5667 5665 5663 5661
5708 5708 5706 5704 5702 5699 5695 5693 5690 5690 5689 5688 5686 5684 5683 5681 5679 5676 5673 5669 5667 5667 5670 5667 5667 5664 5664 5668 5668 5668 5667 5666 5664 5663 5661 5660 5657 5654
5701 5701 5701 5699 5696 5694 5691 5689 5688 5686 5683 5680 5679 5677 5676 5675 5674 5672 5670 5668 5664 5664 5666 5663 5661 5659 5657 5657 5659 5660 5659 5659 5657 5656 5654 5652 5651 5648
5696 5695 5694 5693 5690 5688 5686 5685 5683 5680 5677 5674 5672 5671 5670 5670 5669 5669 5667 5666 5665 5664 5664 5660 5657 5654 5651 5649 5650 5652 5652 5652 5650 5649 5647 5645 5643 5641
5691 5690 5688 5686 5684 5682 5681 5679 5676 5673 5670 5667 5667 5666 5667 5666 5665 5663 5662 5661 5660 5660 5659 5657 5654 5652 5648 5646 5645 5645 5645 5645 5644 5642 5641 5638 5636 5634
5683 5682 5680 5679 5677 5676 5674 5672 5669 5667 5665 5663 5663 5662 5661 5659 5658 5656 5654 5653 5652 5653 5654 5652 5650 5647 5644 5643 5641 5640 5639 5638 5638 5636 5634 5631 5629 5628
5675 5672 5670 5669 5668 5667 5665 5664 5663 5661 5659 5658 5656 5655 5653 5652 5651 5650 5648 5646 5644 5644 5645 5646 5644 5642 5641 5638 5635 5634 5633 5631 5631 5629 5627 5624 5623 5621
5667 5664 5662 5661 5660 5660 5658 5657 5656 5655 5654 5652 5650 5649 5647 5646 5645 5643 5641 5639 5637 5637 5638 5638 5636 5634 5631 5631 5630 5628 5627 5625 5624 5622 5620 5618 5616 5616
5659 5657 5655 5654 5653 5653 5652 5651 5650 5650 5648 5646 5645 5644 5642 5641 5639 5637 5635 5633 5633 5632 5632 5631 5629 5626 5623 5622 5624 5624 5621 5620 5618 5615 5614 5612 5610 5610
5650 5649 5647 5647 5646 5646 5645 5644 5644 5642 5641 5640 5639 5638 5637 5634 5633 5631 5630 5628 5628 5627 5626 5625 5623 5621 5620 5618 5617 5617 5618 5615 5613 5610 5608 5605 5604 5603
5643 5641 5640 5639 5639 5639 5638 5637 5636 5635 5634 5633 5632 5631 5631 5629 5627 5626 5625 5623 5621 5620 5620 5620 5620 5619 5616 5613 5610 5611 5611 5611 5610 5606 5602 5598 5595 5593
5637 5635 5634 5633 5632 5631 5630 5629 5628 5628 5627 5626 5625 5624 5624 5622 5621 5620 5619 5617 5615 5614 5614 5614 5614 5611 5608 5606 5605 5604 5602 5602 5600 5598 5596 5595 5591 5587
5630 5629 5628 5627 5626 5624 5622 5621 5620 5620 5619 5618 5617 5616 5616 5615 5615 5614 5613 5611 5610 5608 5607 5606 5605 5603 5602 5600 5598 5596 5595 5593 5591 5588 5586 5586 5585 5584